Starlink 1281

operational
NORAD ID: 45370 Int'l Des: 2020-019 Owner: SPXS Country: US Constellation: starlink
LEOCIRCULARSTARLINK_TYPE

Starlink 1281について

説明を読み込み中...

リアルタイム位置

3D地球を読み込み中...

次回通過

高度履歴

Altitude vs Time

uPlot chart will show altitude changes over time

軌道要素

1 45370U 20019L 25350.27555595 -.00000439 00000-0 -10547-4 0 9998
2 45370 53.0539 181.0809 0001388 93.1184 266.9964 15.06396771317164
Epoch: Dec 16, 2025 • Age: 19 hours

現在のステータス

高度 566.7 km
速度 7.58 km/s
衛星直下点 -53.14°S, 14.28°W
打ち上げ日 Mar 18, 2020
運用期間 5.7 years
タイプ internet

技術仕様

分類 Payload
質量 260.00 kg
乾燥質量 248.00 kg
総質量 260.00 kg
長さ 0.20 m
直径 2.80 m
スパン 9.00 m
形状 Box + pan
製造者 SPXS
バスタイプ Starlink
フェーズステータス In Orbit
所有者/国 SPXS/US

大規模コンステレーション

Loading constellations...